TimeAKDT,TemperatureF,Dew PointF,Humidity,Sea Level PressureIn,VisibilityMPH,Wind Direction,Wind SpeedMPH,Gust SpeedMPH,PrecipitationIn,Events,Conditions,WindDirDegrees,DateUTC
12:56 AM,-5.1,-9.9,80,30.63,10.0,Calm,Calm,-,N/A,,Clear,0,2013-03-12 08:56:00
1:56 AM,-8.0,-14.1,75,30.63,10.0,ENE,4.6,-,N/A,,Clear,60,2013-03-12 09:56:00
2:56 AM,-9.9,-15.0,78,30.63,10.0,Calm,Calm,-,N/A,,Clear,0,2013-03-12 10:56:00
3:56 AM,-11.0,-17.0,75,30.62,10.0,Calm,Calm,-,N/A,,Clear,0,2013-03-12 11:56:00
4:56 AM,-11.0,-17.0,75,30.63,10.0,Calm,Calm,-,N/A,,Clear,0,2013-03-12 12:56:00
5:56 AM,-13.0,-18.0,78,30.63,10.0,Calm,Calm,-,N/A,,Clear,0,2013-03-12 13:56:00
6:30 AM,-14.8,-20.2,77,30.57,7.0,Calm,Calm,-,N/A,,Clear,0,2013-03-12 14:30:00
6:55 AM,-11.2,-18.4,70,30.62,7.0,Variable,3.5,-,N/A,,Clear,0,2013-03-12 14:55:00
6:56 AM,-13.0,-18.9,75,30.62,10.0,NE,4.6,-,N/A,,Clear,40,2013-03-12 14:56:00
7:55 AM,-14.8,-20.2,77,30.62,10.0,Calm,Calm,-,N/A,,Partly Cloudy,0,2013-03-12 15:55:00
8:55 AM,-14.8,-22.0,70,30.61,10.0,Variable,1.2,-,N/A,,Partly Cloudy,0,2013-03-12 16:55:00
9:55 AM,-9.4,-13.0,84,30.61,10.0,Variable,2.3,-,N/A,,Partly Cloudy,0,2013-03-12 17:55:00
10:55 AM,-4.0,-9.4,78,30.60,10.0,WNW,2.3,-,N/A,,Partly Cloudy,290,2013-03-12 18:55:00
11:55 AM,3.2,-2.2,78,30.59,10.0,WSW,2.3,-,N/A,,Clear,240,2013-03-12 19:55:00
12:55 PM,8.6,-0.4,67,30.57,10.0,Variable,3.5,-,N/A,,Clear,0,2013-03-12 20:55:00
1:55 PM,8.6,1.4,73,30.55,10.0,WSW,4.6,-,N/A,,Clear,240,2013-03-12 21:55:00
2:55 PM,15.8,1.4,53,30.53,25.0,SW,3.5,-,N/A,,Clear,230,2013-03-12 22:55:00
3:55 PM,12.2,-0.4,57,30.51,25.0,West,3.5,-,N/A,,Clear,280,2013-03-12 23:55:00
4:55 PM,12.2,-0.4,57,30.48,25.0,SSW,3.5,-,N/A,,Clear,210,2013-03-13 00:55:00
5:55 PM,12.2,-2.2,53,30.46,25.0,West,4.6,-,N/A,,Clear,280,2013-03-13 01:55:00
6:55 PM,10.4,-2.2,57,30.44,25.0,West,3.5,-,N/A,,Clear,270,2013-03-13 02:55:00
7:55 PM,6.8,-5.8,56,30.42,25.0,West,3.5,-,N/A,,Clear,280,2013-03-13 03:55:00
8:55 PM,1.4,-5.8,72,30.42,7.0,Calm,Calm,-,N/A,,Clear,0,2013-03-13 04:55:00
9:55 PM,-5.8,-11.2,77,30.42,7.0,Calm,Calm,-,N/A,,Clear,0,2013-03-13 05:55:00
11:56 PM,-9.0,-13.0,83,30.40,10.0,Calm,Calm,-,N/A,,Clear,0,2013-03-13 07:56:00